Powrót do katalogu

ONEWEB-0059

AktywnyŁącznośćPO
NORAD 45162·PAYLOAD·🇬🇧 United Kingdom

Wystrzelony Feb 6, 2020 z Baikonur Cosmodrome

Loading…

Następne Przeloty (najbliższe 24 godziny)

TLE

ŚwieżeSource: CelesTrak SupGP

Epoka: Sep 14, 2026, 19:08 UTC

1 45162C 20008AH  26257.79738840  .00002273  00000+0  65193-2 0  2572
2 45162  87.8918  18.4347 0002084 107.4983   1.6939 13.10378780    11

Śledź ONEWEB-0059 w czasie rzeczywistym z AllMySat

Download on the App Store